Weather History for KPBG - December, 2012

Change the Weather History Date:

Monday, December 10, 2012

  Actual Average Record
Temperature  
Mean Temperature 38 °F 27 °F  
Max Temperature 46 °F 35 °F 54 °F (1966)
Min Temperature 29 °F 19 °F -8 °F (1976)
Degree Days  
Heating Degree Days 27 38  
Month to date heating degree days 288 364  
Since 1 July heating degree days 1851 1998  
Cooling Degree Days 0 0  
Month to date cooling degree days 0  
Year to date cooling degree days 346  
Moisture  
Dew Point 34 °F    
Average Humidity 85    
Maximum Humidity 100    
Minimum Humidity 70    
Precipitation  
Precipitation 0.26 in - 0.40 in (1975)
Month to date precipitation 0.73  
Year to date precipitation 25.31  
Sea Level Pressure  
Sea Level Pressure 29.75 in    
Wind  
Wind Speed 7 mph (South)    
Max Wind Speed 18 mph    
Max Gust Speed 26 mph    
Visibility 8 miles    
Events Rain , Snow    
T = Trace of Precipitation, MM = Missing Value Source: NWS Daily Summary

Daily Weather History Graph

Daily Weather History Graph

Search for Another Location

Airport or City:

Trip Planner

Search our weather history database for the weather conditions in past years. The results will help you decide how hot, cold, wet, or windy it might be!

Date:

Astronomy

Dec. 10, 2012 Rise Set
Actual Time 7:20 AM EST 4:13 PM EST
Civil Twilight 6:46 AM EST 4:46 PM EST
Nautical Twilight 6:10 AM EST 5:23 PM EST
Astronomical Twilight 5:34 AM EST 5:59 PM EST
Moon 3:55 AM EST (12/10) 2:04 PM EST (12/10)
Length of Visible Light 9h 59m
Length of Day
8h 53m
Waning Crescent, 10% of the Moon is Illuminated
Dec 10
Waning Crescent
Dec 13
New
Dec 20
First Quarter
Dec 28
Full
Jan 4
Last Quarter

Hourly Weather History & Observations

Time (EST) Temp. Windchill Dew Point Humidity Pressure Visibility Wind Dir Wind Speed Gust Speed Precip Events Conditions
12:06 AM 28.4 °F - 26.6 °F 93% 30.06 in 5.0 mi Calm Calm - 0.00 in Snow Light Snow
12:22 AM 28.4 °F - 26.6 °F 93% 30.04 in 1.8 mi Calm Calm - 0.01 in Snow Light Snow
12:36 AM 28.4 °F - 26.6 °F 93% 30.03 in 3.0 mi Calm Calm - 0.02 in Snow Light Snow
12:46 AM 28.4 °F - 26.6 °F 93% 30.02 in 6.0 mi Calm Calm - 0.03 in   Overcast
12:53 AM 28.9 °F - 27.0 °F 92% 30.02 in 7.0 mi Calm Calm - 0.03 in   Overcast
1:34 AM 28.4 °F - 26.6 °F 93% 29.98 in 2.5 mi Calm Calm - 0.02 in Snow Light Snow
1:45 AM 28.4 °F - 28.4 °F 100% 29.97 in 2.0 mi Calm Calm - 0.04 in Snow Light Snow
1:53 AM 28.9 °F 25.2 °F 27.0 °F 92% 29.97 in 3.0 mi SSE 3.5 mph - 0.04 in   Overcast
2:13 AM 30.2 °F 26.7 °F 28.4 °F 93% 29.94 in 7.0 mi South 3.5 mph - 0.01 in   Overcast
2:19 AM 30.2 °F 26.7 °F 28.4 °F 93% 29.93 in 7.0 mi Variable 3.5 mph - 0.02 in Rain Light Freezing Rain
2:46 AM 33.8 °F 25.8 °F 30.2 °F 87% 29.92 in 8.0 mi South 10.4 mph - 0.02 in Rain Light Rain
2:53 AM 33.1 °F 24.9 °F 30.9 °F 92% 29.92 in 9.0 mi SSE 10.4 mph - 0.02 in Rain Light Rain
3:04 AM 33.8 °F 26.4 °F 32.0 °F 93% 29.91 in 10.0 mi SSE 9.2 mph - 0.01 in Rain Light Freezing Rain
3:20 AM 33.8 °F 26.4 °F 32.0 °F 93% 29.89 in 10.0 mi SSE 9.2 mph - 0.01 in Rain Light Rain
3:27 AM 33.8 °F 27.7 °F 32.0 °F 93% 29.89 in 10.0 mi SSE 6.9 mph - 0.01 in Rain Light Rain
3:53 AM 35.1 °F 27.9 °F 33.1 °F 92% 29.87 in 10.0 mi SSE 9.2 mph - 0.01 in Rain Light Rain
4:32 AM 37.4 °F 32.1 °F 35.6 °F 93% 29.83 in 10.0 mi South 6.9 mph - 0.00 in   Overcast
4:53 AM 37.0 °F 30.4 °F 35.1 °F 93% 29.81 in 10.0 mi SSE 9.2 mph - 0.00 in Rain Light Rain
5:53 AM 37.9 °F 30.0 °F 37.0 °F 97% 29.76 in 10.0 mi SSE 12.7 mph - 0.01 in Rain Light Rain
6:53 AM 39.0 °F 30.3 °F 37.0 °F 93% 29.71 in 10.0 mi SSE 16.1 mph - 0.04 in Rain Light Rain
8:53 AM 42.1 °F 35.7 °F 39.0 °F 89% 29.62 in 10.0 mi South 11.5 mph 19.6 mph 0.00 in Rain Light Rain
9:53 AM 44.1 °F 37.1 °F 39.0 °F 82% 29.58 in 10.0 mi South 15.0 mph 21.9 mph 0.01 in   Overcast
10:53 AM 46.0 °F 41.9 °F 41.0 °F 83% 29.56 in 10.0 mi South 8.1 mph - N/A   Overcast
11:53 AM 46.0 °F 41.4 °F 41.0 °F 83% 29.52 in 10.0 mi South 9.2 mph 18.4 mph N/A   Overcast
12:53 PM 46.0 °F 41.4 °F 42.1 °F 86% 29.50 in 10.0 mi SE 9.2 mph - N/A   Overcast
1:53 PM 46.0 °F 41.0 °F 41.0 °F 83% 29.49 in 10.0 mi SSE 10.4 mph - N/A   Mostly Cloudy
2:53 PM 46.0 °F 43.1 °F 42.1 °F 86% 29.47 in 10.0 mi South 5.8 mph - N/A   Overcast
3:53 PM 46.0 °F - 42.1 °F 86% 29.47 in 10.0 mi Calm Calm - N/A   Overcast
4:53 PM 44.1 °F - 42.1 °F 93% 29.47 in 4.0 mi Calm Calm - 0.00 in Rain Light Rain
5:07 PM 42.8 °F 39.3 °F 42.8 °F 100% 29.48 in 3.0 mi NNW 5.8 mph - 0.01 in Rain Rain
5:53 PM 44.1 °F 42.5 °F 42.1 °F 93% 29.51 in 6.0 mi NNW 3.5 mph - 0.03 in Rain Light Rain
6:53 PM 45.0 °F 42.6 °F 39.9 °F 82% 29.52 in 10.0 mi Variable 4.6 mph - 0.03 in Rain Light Rain
7:53 PM 44.1 °F 40.8 °F 37.0 °F 76% 29.56 in 10.0 mi Variable 5.8 mph - 0.00 in   Overcast
8:53 PM 43.0 °F 40.3 °F 35.1 °F 74% 29.57 in 10.0 mi WNW 4.6 mph - N/A   Overcast
9:53 PM 42.1 °F 40.2 °F 33.1 °F 70% 29.59 in 10.0 mi Variable 3.5 mph - N/A   Overcast
10:53 PM 41.0 °F 39.0 °F 33.1 °F 73% 29.62 in 10.0 mi West 3.5 mph - 0.00 in   Overcast
11:53 PM 39.9 °F 37.8 °F 33.1 °F 77% 29.62 in 10.0 mi Variable 3.5 mph - N/A   Overcast